Temp
21 21 22 22 21 22 21 22 22 22 22 22 23 23 23 23 23 23 23 22 22 22 22 22 22 22 22 22 22 22 22 22 22 22 22 22 22 22 22 22 22 22 22 22 22 22 22 22 22 21 21 22 22 22 22 22 22 22 22 22 22 22 22 22 22 22 22 22 22 22 22 22 22 22 22 22 22 22 22 22 22 22 22 22 22
22 21 22 22 22 22 22 22 22 22 22 22 23 23 23 22 23 23 23 22 22 22 22 22 22 22 22 22 22 22 22 22 22 22 22 22 22 22 22 22 22 22 22 22 22 22 22 22 22 22 21 22 22 21 21 22 22 22 22 22 22 22 22 22 22 22 22 22 21 22 22 22 22 22 22 22 22 22 22 22 22 22 22 22 22
22 22 22 22 22 22 22 22 22 22 22 23 22 22 22 22 22 22 23 22 22 22 22 22 22 22 22 22 22 22 22 22 22 22 22 22 22 22 22 22 22 22 22 22 22 22 22 22 21 22 21 22 21 21 22 22 22 22 22 22 22 22 22 22 22 22 22 22 22 22 22 22 22 22 22 22 22 22 22 22 22 22 22 22 22
22 22 22 22 22 22 22 22 22 23 22 22 22 22 22 22 22 22 22 22 22 22 22 22 22 22 22 22 22 22 22 22 22 22 22 22 22 22 22 22 22 22 22 22 22 21 22 22 21 21 21 21 21 21 22 22 22 22 22 21 22 22 21 22 22 22 22 22 22 21 21 22 22 22 22 22 22 22 22 22 22 22 22 22 22
22 22 22 22 22 22 22 22 23 23 22 22 22 22 22 22 22 22 22 22 22 22 22 22 22 22 22 22 22 22 22 22 22 22 22 22 22 22 22 22 22 22 22 21 21 21 21 22 21 21 21 21 21 21 22 22 22 21 21 21 22 22 21 22 22 22 22 22 22 21 21 21 21 22 22 22 22 22 22 22 22 22 22 22 22
22 22 22 22 22 22 22 22 23 23 23 22 22 22 22 22 22 22 22 22 22 22 22 22 22 22 22 22 22 22 22 22 22 22 22 22 22 22 22 22 22 22 22 22 22 21 21 21 21 21 21 21 20 21 21 21 21 21 21 22 22 21 21 22 22 22 22 22 22 22 21 21 21 22 22 22 22 22 22 22 22 22 22 22 22
22 22 22 22 22 22 22 23 23 23 23 22 22 22 22 22 22 22 22 22 22 22 22 22 22 22 22 22 22 22 22 22 22 22 22 22 22 22 22 22 22 22 22 22 21 21 21 21 21 21 21 21 20 21 21 21 21 21 22 22 21 21 21 22 22 22 22 22 22 22 21 21 21 21 21 21 21 21 21 21 22 22 22 22 22
22 22 22 22 22 22 22 22 22 22 22 22 22 22 22 22 22 22 22 22 22 22 22 22 22 22 22 22 22 22 22 22 22 22 22 22 22 22 22 22 22 22 21 21 21 21 21 21 21 21 21 20 21 21 21 21 20 21 22 21 21 21 21 21 21 22 22 22 22 22 21 21 21 21 21 21 22 22 21 21 21 22 22 22 22
22 22 22 23 22 22 22 22 22 22 22 22 22 22 22 22 22 22 22 22 22 22 22 22 22 22 22 22 22 22 22 22 22 22 22 22 22 22 22 22 22 22 22 21 21 21 21 21 21 21 21 20 20 21 21 21 20 21 22 21 21 21 21 21 21 22 22 22 22 22 21 21 21 21 22 22 22 22 22 22 21 21 22 22 21
22 22 22 22 22 22 22 22 22 22 22 22 22 22 22 22 22 22 22 22 22 22 22 22 22 22 22 22 22 22 22 22 22 22 22 22 22 22 22 22 22 22 22 21 21 21 21 21 21 21 21 20 20 21 21 21 20 21 21 21 21 21 21 21 21 21 22 22 22 21 21 21 21 22 22 22 22 22 22 22 22 21 21 22 21
22 22 22 22 22 22 22 22 22 22 22 22 22 22 22 22 22 22 22 22 22 22 22 22 22 22 22 22 22 22 22 22 22 22 22 22 22 22 22 22 22 22 21 21 21 21 21 21 21 21 21 20 20 21 21 21 20 21 21 21 21 21 21 21 21 21 22 22 21 21 21 21 22 22 21 21 21 22 22 22 22 21 21 21 21
22 22 22 22 22 22 22 22 22 22 22 22 22 22 22 22 22 22 22 22 22 22 22 22 22 22 22 22 22 22 22 22 22 22 22 22 22 22 22 22 22 22 21 21 21 21 21 21 21 21 21 21 20 20 21 21 21 21 21 21 20 21 21 21 21 21 22 22 21 21 21 21 21 21 21 21 21 21 21 21 22 22 21 21 21
21 21 22 22 22 22 22 22 22 22 22 22 22 22 22 22 22 22 22 22 22 22 22 22 22 22 22 22 22 22 22 22 22 22 22 22 22 22 22 22 22 22 22 22 22 22 21 21 21 21 21 21 20 20 20 21 21 21 21 21 20 21 21 21 20 21 22 21 21 21 21 21 21 21 21 21 22 22 21 21 22 23 21 20 21
21 21 22 21 22 22 22 22 22 22 22 22 22 22 22 22 22 22 22 22 22 22 22 22 22 22 22 22 22 22 22 22 22 22 22 22 22 22 22 22 22 22 22 22 22 22 22 21 21 21 21 21 20 20 20 20 21 21 21 20 20 21 21 21 21 21 22 21 21 21 21 21 21 21 21 22 22 22 21 22 22 23 21 20 21
22 21 22 21 22 22 22 22 22 22 22 22 22 22 22 22 22 22 22 22 22 22 22 22 22 22 22 22 22 22 22 22 22 22 22 22 22 22 22 22 22 22 22 22 22 22 21 21 21 21 21 21 20 20 20 20 20 20 20 20 20 21 21 21 21 21 21 21 21 22 22 21 21 21 21 22 22 22 22 22 22 23 21 20 21
22 22 22 21 21 21 22 22 22 22 22 22 22 22 22 22 22 22 22 22 22 22 22 22 22 22 22 22 22 22 22 22 22 22 21 21 21 21 21 21 21 21 21 22 22 22 21 21 21 21 21 21 21 20 20 20 20 20 21 20 20 21 21 21 21 20 21 21 21 22 22 21 21 21 21 22 22 22 22 22 22 23 21 20 21
22 22 22 21 21 21 21 22 22 22 22 22 22 22 22 22 22 22 22 22 22 22 22 22 22 22 22 22 22 22 22 22 22 22 22 21 22 22 22 22 21 21 21 22 22 22 22 22 22 22 21 21 21 21 20 20 20 20 20 20 20 20 20 20 20 20 21 21 22 22 22 21 21 21 21 22 21 21 22 22 21 23 22 20 21
22 22 22 21 21 21 21 22 22 21 22 22 22 22 22 22 22 22 22 22 22 22 22 22 22 22 22 22 22 22 22 22 22 22 22 22 22 22 22 22 21 22 22 22 22 22 22 22 22 22 22 21 21 21 21 20 20 20 20 20 20 20 20 20 20 20 21 21 22 22 22 21 21 21 21 21 21 21 22 21 21 22 21 20 22
22 22 21 21 21 21 21 22 22 21 22 22 22 22 22 22 22 22 22 22 22 22 21 22 22 22 22 22 22 22 22 22 22 22 22 22 22 22 22 21 22 22 22 22 22 22 22 22 22 22 22 22 21 21 21 21 21 21 20 20 20 20 20 20 20 21 21 21 21 22 22 22 21 21 21 21 21 22 22 22 21 21 20 20 22
22 22 21 21 21 21 21 21 21 21 21 22 22 22 22 22 22 22 22 22 22 21 22 22 22 22 22 22 22 22 22 22 22 22 22 22 22 22 22 22 22 22 22 22 22 22 22 22 21 21 21 22 22 21 21 21 21 21 21 20 20 20 20 20 20 21 21 21 22 21 22 22 22 21 21 21 21 21 21 21 21 21 20 21 21
21 21 21 21 21 21 21 21 21 21 21 21 22 22 22 22 22 22 21 21 21 21 22 22 22 22 22 22 22 22 22 22 22 22 22 22 22 22 22 22 22 22 22 22 21 21 21 21 21 21 21 21 21 21 21 21 20 21 21 20 20 20 20 20 21 21 21 21 21 21 22 22 22 22 21 21 21 21 21 21 21 21 21 21 21
21 21 21 21 20 21 21 21 21 21 21 22 22 22 22 22 22 22 21 21 21 22 22 22 22 22 22 22 21 21 22 22 22 22 22 22 22 22 22 22 22 22 22 22 21 21 21 22 21 21 21 21 21 21 21 21 20 21 21 20 20 20 20 20 20 20 21 21 21 21 21 22 22 22 22 21 21 21 21 21 21 21 21 21 21
21 21 21 21 20 21 21 21 21 21 21 22 22 22 22 22 22 21 21 21 21 22 22 22 22 22 22 22 21 21 22 22 22 22 22 22 22 22 22 22 22 22 22 22 22 21 22 21 21 21 21 21 21 21 21 21 21 21 21 20 21 21 20 20 20 20 20 20 21 21 21 21 22 22 22 21 21 21 21 21 21 21 21 21 21
21 21 21 21 21 21 22 21 21 21 21 22 22 22 22 22 21 21 21 21 21 21 22 22 22 22 22 21 21 22 22 22 22 22 22 22 22 22 22 22 22 22 22 22 22 21 22 21 21 21 21 21 21 21 21 21 21 21 20 21 21 21 20 20 20 20 20 20 20 20 21 21 21 21 22 21 21 21 21 22 22 21 21 21 21
21 21 21 21 21 22 22 21 21 21 21 21 22 22 22 22 21 21 21 21 21 22 22 22 22 22 22 22 22 22 22 22 23 23 23 23 23 23 23 22 22 22 22 22 22 22 22 21 21 21 21 21 21 21 21 21 21 21 20 20 20 20 20 20 20 20 20 20 20 20 20 20 21 21 21 21 21 21 21 22 22 21 21 21 21
21 21 21 21 21 21 21 21 21 21 21 21 21 22 22 22 22 22 22 21 22 22 22 23 23 23 23 23 22 22 22 23 23 23 23 23 23 23 23 23 23 23 23 22 22 22 22 22 22 22 21 21 21 21 21 21 21 21 21 20 20 20 20 20 20 20 20 20 20 20 20 20 20 21 21 21 21 21 21 22 22 22 21 21 21
21 21 21 21 21 21 21 21 21 21 21 21 21 21 22 22 23 22 22 22 22 22 23 23 24 24 24 23 23 23 23 23 23 23 23 23 23 23 23 23 23 23 23 23 22 22 22 22 22 22 22 21 21 21 21 21 20 20 21 21 20 20 20 20 20 20 20 20 20 20 20 20 20 20 21 21 21 21 21 21 22 22 21 22 22
21 21 21 21 21 22 22 21 21 21 21 21 21 21 22 22 23 22 22 22 22 23 23 24 24 24 24 24 24 24 24 23 24 24 24 23 24 24 24 23 23 23 23 23 23 23 22 22 22 22 22 22 22 21 21 21 20 20 20 21 20 20 20 20 21 20 20 20 20 20 20 20 20 20 21 21 21 21 21 21 21 22 21 22 22
21 21 21 21 22 22 22 22 21 21 21 21 21 21 22 22 22 22 22 22 23 24 24 24 24 25 25 24 24 24 24 24 24 24 24 24 24 24 24 24 24 24 23 23 23 23 23 22 22 22 21 22 22 21 21 21 21 20 20 20 21 20 20 21 21 21 20 20 20 20 20 20 20 20 20 21 21 21 22 21 21 22 22 22 22
21 21 21 22 22 22 22 22 22 22 22 22 22 22 22 22 23 23 23 23 24 24 24 24 25 25 25 25 25 25 24 24 24 24 24 24 24 24 25 25 25 25 24 24 24 23 23 23 22 22 22 22 22 21 21 21 21 21 21 20 20 21 20 20 21 21 21 20 20 20 21 20 20 20 20 21 21 21 22 21 21 21 22 22 22
22 22 22 22 22 22 22 23 23 22 22 22 23 23 23 23 23 24 24 24 25 25 24 25 25 25 25 25 25 25 24 24 24 24 24 24 24 24 25 25 25 25 25 24 24 23 23 23 22 22 22 22 21 21 21 21 21 21 21 21 21 21 20 20 20 21 21 20 20 21 21 21 21 21 21 21 21 21 21 21 21 21 21 22 22
22 22 22 22 22 22 23 23 23 23 23 23 23 23 23 24 24 24 24 25 25 25 25 25 25 25 25 25 25 24 24 24 24 24 24 24 24 25 25 25 25 26 25 24 24 23 23 23 22 22 22 22 21 21 21 21 21 21 21 21 21 21 21 21 20 21 21 21 21 21 21 21 21 21 21 21 21 21 21 21 21 21 21 21 22
22 23 23 22 22 23 23 23 23 23 23 23 23 23 24 24 24 24 25 25 25 25 25 25 25 25 25 25 24 24 24 24 24 24 24 24 24 24 25 25 25 25 25 24 24 23 23 23 22 22 22 22 21 21 21 21 21 21 21 21 21 21 21 21 20 21 21 21 21 21 21 21 21 21 21 21 21 21 21 21 21 21 22 22 22
23 23 23 23 23 23 23 23 23 23 23 23 24 24 24 24 24 24 24 24 25 25 25 25 25 25 25 25 24 24 24 25 25 25 24 24 24 24 24 24 25 25 24 23 23 23 23 22 22 21 21 21 21 21 21 21 21 21 21 21 21 21 21 21 21 21 21 21 21 21 21 21 21 21 21 21 21 21 21 21 21 21 21 21 22
23 23 23 23 23 23 23 23 23 23 24 24 24 24 24 24 24 24 24 24 24 24 24 24 24 24 24 24 24 24 25 25 25 24 24 24 24 24 24 24 24 25 24 23 23 23 22 22 22 21 21 21 21 21 21 21 21 21 21 21 21 21 21 21 21 21 21 21 21 21 21 21 21 21 21 21 21 21 21 21 21 21 21 21 21
23 23 23 23 23 23 23 23 23 24 25 25 24 24 24 24 24 24 24 24 24 24 24 24 23 22 22 23 24 24 24 24 24 24 23 24 24 24 24 24 24 24 24 23 23 22 22 21 21 21 21 21 21 20 20 20 21 21 20 21 21 21 21 21 21 21 21 21 21 21 21 21 21 21 21 21 21 21 21 21 21 21 21 21 21
23 23 23 23 23 23 23 23 23 24 25 24 24 24 24 24 24 24 24 24 24 24 24 23 22 22 23 23 24 23 23 23 23 23 23 24 24 24 23 23 23 23 23 23 22 22 22 21 21 21 21 20 20 20 20 20 20 21 20 20 21 21 21 21 21 21 21 21 21 21 21 21 22 21 21 21 21 21 21 21 22 21 21 21 21
23 23 23 23 22 22 23 23 23 24 24 24 24 24 24 24 24 24 24 24 24 24 24 23 22 23 24 23 23 22 23 23 23 23 23 23 24 23 23 22 22 22 22 22 22 22 21 20 20 20 20 20 19 19 20 20 20 20 20 21 21 21 21 21 21 21 21 21 21 21 22 22 22 22 21 21 21 21 21 21 21 21 21 22 21
23 23 23 23 22 22 22 23 23 23 23 23 24 24 23 23 23 23 23 23 23 24 24 23 23 23 23 23 22 22 23 23 23 23 23 22 23 23 22 22 22 22 22 22 22 22 21 19 19 20 19 19 19 19 19 19 20 20 20 20 21 21 21 21 21 20 20 21 21 21 22 22 22 22 22 22 22 21 22 22 21 21 21 22 21
22 22 22 23 22 22 23 23 23 23 23 22 22 23 23 23 23 23 23 23 23 24 23 22 22 23 23 23 22 21 22 23 23 23 22 22 23 23 22 22 22 22 21 21 21 22 21 20 19 19 19 19 19 19 19 19 19 20 20 20 21 21 21 21 21 21 21 21 21 21 21 22 22 22 22 22 22 22 22 22 21 21 22 22 22
22 22 22 23 22 21 22 23 23 23 22 21 21 22 23 22 23 23 23 23 23 23 21 19 20 22 23 22 21 21 22 23 23 22 22 22 22 22 22 22 21 21 21 21 21 21 21 21 20 19 19 19 19 19 19 19 19 20 20 20 20 21 21 21 21 21 21 21 21 21 21 21 22 22 22 22 22 22 22 21 21 22 22 22 22
22 22 21 22 22 21 21 22 23 23 22 20 21 22 22 21 22 22 23 23 24 22 20 19 20 22 22 22 21 21 22 23 22 22 22 22 22 22 22 21 21 21 21 21 21 21 21 21 20 19 19 19 19 20 19 20 20 20 20 20 21 21 21 21 21 21 21 21 21 21 21 21 21 22 22 22 22 22 22 22 22 22 22 22 22
21 20 21 22 21 21 21 22 23 23 21 20 21 22 22 21 22 22 21 22 23 23 22 21 21 21 22 22 22 23 23 22 22 22 21 21 21 22 21 22 21 21 21 21 21 21 20 19 19 19 19 19 20 20 20 20 20 20 20 20 20 21 21 21 21 21 21 21 21 21 21 21 21 21 21 22 22 22 22 22 22 22 22 22 22
21 20 20 21 21 21 21 21 22 22 21 21 22 22 22 22 22 22 22 22 22 22 22 22 22 21 22 22 23 23 23 22 22 22 22 21 21 21 21 22 21 21 21 21 21 21 20 19 20 20 20 19 20 20 20 20 20 20 20 20 20 20 21 21 20 21 22 21 21 21 21 21 21 21 21 22 22 22 22 22 22 22 22 22 22
20 19 20 20 20 20 21 21 22 22 22 22 22 22 21 20 20 21 22 22 21 21 22 23 23 23 23 23 23 23 23 23 22 22 22 22 22 21 22 22 21 21 21 21 21 21 20 20 20 20 19 19 19 20 20 20 20 20 20 20 20 20 21 21 20 22 22 22 22 22 21 21 21 21 21 21 22 22 22 22 22 22 22 22 22
19 20 20 20 20 20 21 22 22 22 22 22 22 22 20 20 20 20 20 21 22 23 23 23 23 23 23 23 22 22 22 23 23 22 22 22 22 21 22 22 21 21 21 21 21 21 21 21 21 20 20 19 19 20 20 20 20 20 20 20 20 21 20 20 21 21 22 22 22 22 21 21 21 21 21 21 22 22 22 22 22 22 22 22 22
19 20 20 20 20 20 21 22 22 22 21 21 22 21 20 20 20 21 22 22 23 23 23 23 23 23 22 22 22 22 23 23 23 23 22 22 22 22 22 22 21 21 22 22 22 22 22 22 22 21 21 20 20 20 20 20 20 20 20 20 20 20 20 20 20 21 21 21 22 21 22 22 21 21 21 21 22 22 22 22 22 22 22 22 22
19 19 20 20 21 21 21 21 21 21 21 21 22 22 21 20 20 22 23 23 23 23 23 22 22 22 22 22 22 22 23 23 23 23 23 23 22 22 22 22 22 22 22 22 23 23 23 23 22 22 22 21 21 21 20 20 20 20 20 19 19 19 19 19 20 20 20 21 21 21 21 22 22 22 22 22 22 22 22 22 22 22 22 22 22
20 20 20 20 21 21 21 21 21 21 21 22 22 22 21 20 20 22 23 23 23 23 22 22 22 22 22 22 22 23 23 24 24 23 23 23 23 23 22 22 22 22 23 23 23 23 23 23 23 23 22 22 21 21 21 21 21 20 20 20 20 20 20 20 20 19 19 20 21 21 21 21 21 21 22 22 22 22 22 22 22 22 22 22 22
20 20 20 20 20 21 21 21 22 22 22 22 22 22 21 20 21 22 22 22 22 22 22 22 21 22 22 22 22 23 23 23 24 24 23 23 23 23 23 23 22 23 23 23 23 23 23 23 23 23 22 22 22 22 22 21 21 21 20 20 20 20 20 20 20 20 19 19 20 21 21 20 20 21 22 22 22 22 22 22 22 22 22 22 22
20 20 20 20 21 21 21 22 22 21 21 22 21 21 21 22 22 22 22 22 22 22 22 21 21 22 22 23 23 23 23 23 24 24 24 24 23 23 23 23 23 23 23 23 23 23 23 23 23 23 23 22 22 22 22 22 22 21 21 20 20 20 20 20 20 20 19 19 20 20 20 20 20 21 22 22 22 22 22 22 22 22 23 23 23
Height
797 798 799 800 801 802 803 804 806 806 807 808 809 810 811 812 813 813 814 815 815 817 817 818 819 820 821 821 822 822 822 823 824 825 825 826 827 828 829 830 830 831 832 832 833 834 835 836 836 836 836 837 837 838 840 840 839 839 840 841 842 842 842 842 842 841 841 842 842 842 842 841 841 841 842 842 842 842 843 844 845 846 846 847 847
796 798 799 800 802 802 804 804 806 807 808 809 809 811 812 813 814 815 815 816 816 817 818 819 820 821 821 822 823 823 823 824 824 825 826 826 827 828 829 830 830 831 831 832 833 834 835 835 836 836 837 837 838 839 840 840 839 840 841 841 843 844 843 843 842 842 842 842 842 842 842 842 841 842 842 842 842 843 843 844 845 846 847 847 848
796 799 799 801 802 803 804 805 807 808 809 809 810 811 813 814 815 816 816 817 817 818 819 820 821 822 822 823 823 824 824 825 825 826 826 827 828 829 829 830 831 831 831 832 833 834 834 835 835 836 836 837 839 840 840 840 840 841 842 843 844 846 846 844 843 843 842 843 843 843 842 842 842 842 842 842 842 842 843 844 845 846 847 848 848
797 799 800 801 802 803 805 806 807 808 809 809 811 812 813 815 816 816 817 818 818 819 820 821 822 822 823 824 824 825 825 825 826 826 827 828 829 829 830 831 831 831 832 832 833 834 834 834 835 835 836 837 839 840 841 841 841 842 843 844 844 846 847 846 844 844 843 843 843 843 843 842 842 842 842 842 842 842 842 843 844 846 847 848 849
798 799 801 802 803 804 805 807 807 808 809 810 812 813 814 815 816 817 818 819 819 820 821 822 822 823 824 824 825 826 826 826 827 827 828 829 829 830 830 831 831 832 832 833 833 834 834 834 834 835 836 837 839 841 841 842 843 844 845 845 844 845 847 846 845 844 843 843 843 843 843 843 842 842 842 842 842 842 842 843 844 846 848 849 850
799 800 801 802 804 805 806 807 807 808 809 811 813 814 815 816 817 818 819 820 820 821 822 822 823 824 824 825 826 826 827 827 827 828 828 829 830 830 831 831 831 832 832 833 833 833 833 834 834 834 835 837 839 841 841 843 843 844 845 844 845 845 846 846 845 844 843 843 843 843 843 843 843 843 843 844 844 844 843 844 844 846 848 849 850
799 801 802 803 804 805 806 806 807 809 810 812 813 814 815 816 817 818 819 820 821 822 823 823 824 824 825 826 826 827 827 828 828 828 829 830 830 830 831 831 832 832 832 833 833 833 833 833 834 834 835 837 839 840 841 843 844 844 844 843 844 845 846 846 845 844 843 843 843 843 843 843 844 845 847 849 850 850 849 848 846 846 848 850 851
799 801 802 803 804 805 806 807 809 810 812 813 814 815 816 817 818 819 820 821 822 823 823 824 825 825 826 826 827 828 828 828 829 829 829 830 830 831 831 832 832 833 833 833 833 833 833 833 834 834 835 837 838 838 840 842 843 844 844 843 844 845 845 846 845 844 844 844 844 844 844 844 845 848 851 852 853 853 853 853 852 849 849 851 851
800 801 802 804 804 806 807 809 810 812 813 814 815 815 816 818 819 820 821 821 822 823 824 824 825 826 826 827 827 828 828 828 829 829 830 830 831 831 832 832 832 833 833 834 834 833 833 833 834 835 836 837 838 838 839 841 842 843 844 844 843 844 845 845 845 844 844 844 844 844 845 846 847 850 852 852 852 852 853 854 856 854 851 852 853
800 802 803 804 806 807 809 810 812 813 814 815 816 816 817 818 820 820 821 822 823 823 824 824 825 826 826 827 827 828 828 829 829 830 830 831 831 832 832 832 833 833 834 834 833 833 833 834 834 835 836 837 839 839 839 840 841 842 843 843 843 844 844 844 844 844 844 844 845 845 846 847 848 850 852 852 852 852 852 853 855 858 857 854 855
801 803 805 806 808 809 810 812 813 814 815 816 817 817 818 819 820 821 822 823 823 824 824 825 825 826 826 827 827 828 828 829 829 830 831 831 832 832 833 833 833 834 834 834 834 833 834 834 834 835 836 837 839 839 838 840 841 841 842 842 843 843 844 844 844 844 844 845 845 846 847 848 849 851 852 853 853 853 854 854 855 859 861 858 856
803 805 806 808 809 811 812 813 814 815 815 817 818 819 820 820 821 822 823 824 824 825 825 825 825 826 826 827 828 828 829 829 829 830 831 831 832 832 833 833 833 834 834 834 834 834 834 834 834 835 836 837 838 839 838 839 840 841 841 841 842 842 843 845 845 845 845 845 846 847 848 849 850 851 853 854 854 854 854 856 856 857 863 862 858
804 806 808 809 810 812 812 813 814 815 816 817 819 820 821 821 822 823 824 824 825 826 826 826 826 827 827 828 828 828 829 829 830 830 831 831 832 832 833 833 833 834 834 833 834 833 834 834 834 834 835 836 838 838 838 838 839 839 840 841 842 842 842 844 846 845 846 846 847 848 849 850 850 852 853 854 854 855 855 856 857 857 863 864 861
805 807 809 810 811 813 813 814 815 816 817 818 820 820 821 822 823 824 824 825 826 826 826 827 827 828 828 829 829 829 829 830 830 830 831 831 832 832 833 833 834 834 834 833 833 833 834 834 834 834 835 835 836 838 838 838 838 839 840 841 842 842 842 844 845 845 847 847 848 848 849 850 851 853 854 855 855 856 856 857 858 858 862 865 863
806 808 810 811 812 813 814 814 815 817 818 819 820 821 822 823 824 824 825 826 826 827 827 828 828 829 829 829 830 830 830 830 831 831 831 832 832 832 833 833 834 834 834 834 834 834 834 834 834 834 834 835 836 837 837 838 839 839 840 840 842 843 842 842 844 846 847 848 848 849 850 850 852 853 854 855 856 857 857 857 859 859 861 866 865
807 809 811 812 813 814 815 815 816 817 819 820 821 822 823 823 824 825 826 826 827 827 828 828 828 829 829 829 830 830 831 831 832 832 832 832 832 833 833 834 834 834 834 834 834 834 834 834 834 834 834 834 835 836 837 837 838 839 839 840 841 842 842 842 845 847 848 848 848 849 850 851 852 853 854 855 856 857 858 858 860 859 862 866 865
808 810 811 813 814 815 815 816 817 818 820 821 821 823 823 824 825 826 827 827 827 828 828 829 829 829 829 829 830 830 831 831 832 832 832 832 832 833 833 834 834 834 834 834 833 833 834 834 834 834 834 834 835 835 835 836 837 839 840 841 842 842 843 844 846 847 847 847 848 849 850 851 852 853 854 856 857 857 858 859 859 859 863 866 865
809 811 812 814 815 816 817 817 818 819 820 821 822 823 824 825 826 826 827 828 828 829 829 829 829 829 829 829 830 830 831 831 832 832 832 832 833 833 833 834 834 834 834 834 833 833 833 833 833 833 833 833 834 835 835 836 837 838 840 841 842 842 843 844 845 846 847 847 848 849 850 851 852 853 855 856 857 857 858 859 859 860 864 866 865
811 812 813 815 815 817 817 818 819 819 821 821 823 824 825 826 826 827 828 828 829 829 829 829 829 829 829 830 830 831 832 832 832 832 833 833 833 834 834 834 835 835 835 835 834 834 833 833 833 833 833 833 833 834 835 836 836 837 838 839 841 842 843 843 844 845 846 847 847 848 850 851 852 854 855 856 857 857 858 859 860 862 865 865 865
812 813 814 815 816 817 817 819 819 820 821 822 823 824 825 826 827 828 828 829 829 829 829 829 829 829 830 830 831 831 832 832 833 833 833 833 834 834 834 835 835 836 836 836 836 835 834 834 833 833 833 833 833 834 835 836 836 835 836 837 839 840 841 841 842 844 845 846 847 848 849 850 852 854 855 856 857 858 859 860 861 863 864 864 864
813 813 815 816 816 817 818 819 819 821 822 822 823 824 825 826 827 828 828 829 829 830 829 829 830 830 830 831 831 831 831 832 832 833 833 833 834 834 834 835 835 836 836 836 836 836 835 835 835 835 835 835 835 835 835 836 836 835 836 837 838 838 839 840 841 843 845 846 847 847 849 850 852 854 855 856 857 858 859 860 861 861 862 862 863
812 813 815 816 816 817 818 819 819 820 821 822 823 824 826 826 828 828 828 829 829 830 829 829 830 830 831 831 832 832 832 832 832 833 833 833 833 834 834 834 835 835 835 836 836 836 835 835 835 835 836 835 835 835 836 835 835 836 836 838 838 838 840 841 841 843 844 845 846 848 849 850 852 853 854 855 856 858 858 859 860 860 861 861 862
812 813 814 815 816 817 818 819 819 820 821 822 823 824 825 826 827 828 828 829 829 829 829 829 829 830 831 831 832 832 832 832 832 833 833 833 833 833 834 834 834 834 834 835 835 835 835 835 835 836 836 836 836 836 836 836 835 835 836 837 837 838 840 841 842 843 844 845 846 848 849 850 852 853 854 855 856 857 857 858 859 859 860 861 862
810 812 813 815 816 817 818 819 819 820 821 822 823 824 825 826 826 827 827 828 828 828 828 829 829 829 830 831 831 832 832 832 832 833 833 833 833 833 833 833 833 833 834 834 835 835 835 835 835 836 836 836 836 836 837 837 836 836 836 837 837 838 840 841 842 843 843 845 846 847 849 850 851 852 853 854 855 856 857 857 858 859 859 860 861
810 812 813 814 815 816 817 818 819 820 820 821 822 823 824 825 826 826 827 827 828 828 828 828 828 829 830 830 831 831 831 832 832 832 832 833 833 833 833 833 833 833 833 833 834 835 835 835 835 835 836 836 836 837 837 838 838 838 838 839 839 840 841 841 842 843 843 844 846 847 848 849 850 851 852 853 854 855 856 857 857 858 859 860 861
810 811 811 813 814 816 817 817 819 819 820 821 822 823 824 825 825 825 826 827 827 827 827 828 828 829 830 830 830 831 831 831 832 832 832 832 832 833 833 833 833 833 833 833 834 834 834 835 835 835 835 836 836 837 837 838 838 839 840 840 841 841 841 842 842 842 843 844 845 846 848 849 850 850 851 853 854 855 856 857 857 858 859 860 861
808 809 810 812 813 814 816 817 818 819 820 820 821 822 823 824 824 825 825 826 827 827 827 827 828 829 829 830 830 830 830 831 831 831 832 832 832 832 832 833 833 833 833 833 833 833 834 834 834 835 835 835 836 837 837 838 838 839 839 840 840 841 841 841 841 842 842 843 844 845 847 848 849 850 851 852 853 854 855 856 857 858 859 860 861
807 808 809 810 811 813 814 815 816 817 818 819 820 821 822 823 824 824 825 825 826 826 827 827 828 829 829 830 830 830 830 830 830 831 831 832 832 832 832 832 831 832 832 833 833 833 833 833 834 834 834 835 835 836 837 837 838 838 839 839 840 840 840 841 841 841 842 842 843 844 846 847 848 849 850 851 852 853 854 856 857 858 859 860 861
805 806 807 808 809 811 813 814 815 816 817 818 819 820 821 822 822 823 824 825 825 826 826 827 828 828 829 829 829 829 829 829 830 830 831 831 831 831 830 830 830 830 831 831 832 832 832 832 833 834 834 834 835 835 836 836 837 837 838 838 839 839 840 840 840 841 841 841 842 843 844 846 847 848 849 850 851 853 853 855 856 858 858 859 860
803 804 805 806 808 810 811 813 814 816 817 818 818 819 820 821 821 822 823 824 824 825 826 827 827 828 828 828 829 829 829 829 829 830 830 830 830 830 829 829 829 829 829 830 830 831 831 832 832 833 833 834 834 834 835 835 836 836 836 837 837 838 839 839 840 840 840 841 841 841 843 844 846 847 848 849 850 851 852 853 855 857 858 859 859
802 803 804 805 807 809 810 811 813 815 816 817 817 818 819 819 820 821 822 823 824 825 825 826 826 827 827 828 828 828 829 829 829 829 829 829 829 829 829 829 828 828 828 828 829 830 830 831 831 832 832 833 833 833 834 834 834 835 835 835 836 836 837 838 838 839 839 840 840 840 841 843 844 845 846 848 849 850 851 852 854 855 856 858 858
801 802 803 805 807 808 809 810 812 813 814 815 816 817 818 819 820 820 821 822 823 824 824 825 826 826 827 827 828 828 828 828 828 828 828 828 828 828 828 828 828 827 827 827 828 829 830 830 830 831 831 832 832 832 832 833 833 833 834 834 835 835 836 836 837 838 838 839 839 839 840 841 842 844 845 846 847 849 850 851 852 854 855 856 857
799 800 801 803 805 806 808 810 811 812 813 814 816 816 817 818 819 820 820 821 822 823 824 825 825 826 827 827 828 828 828 828 827 827 827 828 827 827 828 827 827 826 826 827 828 828 829 829 830 830 831 831 831 831 831 831 832 832 832 833 833 834 834 835 836 836 837 838 838 839 840 840 841 842 843 844 846 847 849 850 851 852 853 854 855
798 799 800 801 803 805 807 809 810 811 813 814 815 816 817 817 818 819 820 821 822 823 824 825 826 827 828 828 828 828 828 828 827 827 827 827 827 827 827 826 826 826 826 827 827 828 828 829 829 830 830 830 830 831 831 830 830 831 831 832 832 833 833 834 834 835 836 837 837 838 839 839 840 841 842 843 844 846 847 848 849 850 851 853 854
797 798 799 801 802 804 806 808 809 811 812 813 814 815 816 817 818 819 820 821 822 823 824 825 826 828 829 829 829 828 828 828 827 827 827 827 827 826 826 826 826 826 826 827 827 827 828 828 829 829 829 829 829 829 830 829 829 830 830 831 831 832 832 832 833 834 834 835 836 837 838 839 839 840 840 842 843 844 845 846 848 849 850 851 852
796 798 799 800 802 804 805 807 808 810 810 812 813 814 816 816 818 818 820 821 822 823 824 825 826 829 830 830 828 828 828 828 828 828 828 827 826 826 826 825 826 826 826 826 826 827 827 828 828 828 828 828 827 827 828 828 828 828 829 829 830 831 831 831 831 832 833 833 834 835 836 837 838 839 839 840 841 842 843 844 845 846 848 849 850
797 798 799 800 802 804 806 807 808 809 810 811 813 814 815 816 817 818 819 820 821 821 823 824 825 827 827 827 828 828 828 828 828 829 829 828 826 825 825 825 825 825 825 825 825 825 826 827 827 826 827 827 826 826 826 826 827 827 827 828 829 829 829 829 830 831 831 832 833 833 834 835 837 838 838 839 840 840 842 842 843 844 846 847 848
796 797 798 800 802 805 808 808 808 809 809 810 812 813 814 815 816 817 818 819 820 820 822 823 823 823 823 823 827 828 828 827 828 828 828 828 826 825 825 824 825 825 825 825 824 824 826 827 825 824 825 826 825 825 825 825 825 825 826 826 827 828 828 828 829 829 830 830 831 832 833 834 835 836 837 838 838 839 839 840 842 843 843 845 846
795 796 797 799 801 806 809 809 809 809 810 810 811 812 812 814 815 816 817 817 818 819 821 821 821 821 820 822 826 828 827 826 827 826 827 827 825 824 824 824 824 824 824 824 823 822 823 825 825 824 824 825 824 824 824 824 824 824 824 825 825 826 827 827 827 828 828 829 830 830 831 832 833 834 835 836 837 837 838 839 840 841 841 843 844
795 795 797 798 800 805 807 806 806 807 808 810 810 810 811 812 813 814 815 815 816 818 819 820 821 820 818 821 826 827 825 824 824 824 825 826 824 823 823 823 823 823 824 824 822 821 821 823 824 825 825 824 823 822 822 822 822 823 823 823 824 824 825 825 826 826 827 828 828 829 829 830 831 832 833 834 835 835 836 837 837 838 839 840 842
793 793 794 796 799 802 804 802 802 804 806 809 811 810 810 811 812 813 813 814 815 816 818 820 822 820 818 820 824 824 822 820 820 821 823 824 821 821 821 821 821 822 823 822 821 821 820 820 822 825 825 823 821 821 821 821 821 822 822 823 822 823 823 824 824 824 825 826 827 828 828 828 829 829 830 831 832 833 834 835 836 836 837 838 839
790 792 793 795 797 800 803 802 801 803 806 810 811 809 810 812 813 813 812 813 813 815 817 820 821 819 819 821 822 821 820 818 818 819 821 820 819 819 819 820 820 821 821 821 820 820 820 819 821 823 823 822 821 820 820 820 821 821 822 822 822 822 822 822 822 823 823 824 825 825 826 827 827 827 828 829 830 831 832 833 834 834 835 835 836
789 793 792 793 796 797 799 801 800 801 805 808 808 807 809 813 814 813 813 813 814 815 816 817 818 819 820 821 820 820 819 818 817 818 819 818 818 819 819 819 820 820 820 820 820 819 819 820 821 821 821 820 820 820 820 820 820 821 821 823 823 822 822 821 821 821 821 822 822 823 824 825 825 826 827 827 828 828 829 830 831 832 833 833 834
791 793 791 791 794 796 798 800 800 801 803 805 806 807 808 811 814 813 812 813 815 816 815 815 817 818 819 819 819 819 818 817 816 815 816 817 818 819 819 819 819 820 820 820 820 819 818 819 819 819 819 819 819 819 819 819 819 820 821 823 823 824 825 823 821 820 819 820 821 821 822 823 824 825 825 825 826 826 827 828 828 829 830 831 832
793 792 790 792 794 796 799 801 802 802 803 804 805 806 808 811 814 813 812 812 814 815 814 814 815 816 817 817 817 817 816 815 813 814 815 816 817 818 819 818 818 819 819 819 819 819 818 818 819 818 819 819 819 818 818 818 819 819 820 822 823 825 826 823 821 820 819 819 820 820 821 821 822 823 823 823 824 824 825 825 826 826 827 828 829
791 790 790 793 794 795 796 798 800 801 803 804 805 807 808 812 814 813 812 812 811 811 811 812 813 814 814 815 815 815 814 813 812 813 814 814 816 817 818 818 818 819 819 819 819 819 818 818 818 818 819 819 818 818 818 818 819 819 819 820 821 823 823 822 822 822 819 818 819 819 820 820 820 821 821 821 821 822 823 823 823 824 824 825 826
788 789 790 793 794 794 795 796 798 800 803 804 804 806 808 812 814 812 809 808 807 808 809 810 811 812 813 813 814 813 813 813 812 812 813 814 815 816 817 818 818 818 818 818 818 818 818 818 818 818 818 818 818 818 818 818 818 819 819 819 819 820 821 821 822 822 821 819 818 818 819 819 819 819 819 819 819 820 820 820 821 821 822 822 823
787 788 788 790 791 793 794 795 797 800 802 802 803 804 806 811 813 809 805 805 806 807 808 809 810 811 812 812 813 813 813 813 813 813 813 814 815 816 817 817 818 818 818 818 818 818 818 818 817 817 817 817 817 817 817 817 818 818 818 819 819 819 820 820 820 821 822 821 818 817 818 818 818 818 817 817 817 817 818 818 818 818 818 819 820
786 786 787 788 790 792 793 795 796 799 801 801 802 804 806 809 809 806 804 805 805 806 807 808 809 809 811 812 813 813 813 813 813 813 814 814 815 816 817 817 818 818 818 818 818 818 818 818 817 817 817 817 817 817 817 817 817 817 817 818 818 818 819 819 819 819 820 821 819 817 817 817 816 816 816 816 815 815 816 815 816 816 816 816 816
785 786 787 788 789 791 793 794 795 797 799 801 803 804 805 806 806 804 804 804 805 806 807 808 809 809 810 812 813 814 814 814 813 814 814 815 816 816 817 817 818 818 818 818 818 818 818 818 818 817 817 817 817 817 816 816 816 817 817 817 817 817 818 817 818 818 819 820 820 818 817 817 816 815 814 814 814 814 814 814 813 813 813 813 813
784 786 787 788 790 790 792 793 794 797 799 801 802 803 804 804 804 804 804 804 805 806 807 808 809 809 810 811 813 814 814 814 814 814 815 815 816 816 817 817 818 818 818 818 818 818 818 818 818 818 817 817 817 817 816 816 816 816 817 817 817 816 817 816 816 817 818 818 819 818 816 816 816 814 812 812 812 812 812 811 811 811 810 810 810
Wind_Speed
17 17 18 18 18 18 17 16 15 15 15 16 16 15 14 13 12 11 11 10 10 10 10 10 9 10 9 9 9 9 9 9 9 8 9 9 9 10 10 9 9 8 7 7 8 9 7 5 6 7 7 8 7 6 6 5 5 5 8 7 6 8 10 12 13 13 14 13 14 16 17 16 16 16 17 17 18 19 19 19 20 20 20 20 20
21 19 19 19 18 18 18 16 15 14 15 15 15 14 13 12 11 10 10 9 9 9 9 9 9 10 9 9 8 8 8 8 8 8 8 8 8 9 9 9 8 8 7 7 8 8 7 6 5 6 6 7 6 5 5 5 5 6 8 8 7 8 10 11 11 12 12 12 13 15 15 15 16 16 16 17 18 18 19 19 20 20 19 19 19
22 20 19 19 17 17 18 16 15 14 14 14 14 13 12 11 10 10 10 9 9 8 8 8 9 9 9 9 8 8 8 7 7 7 7 7 8 8 8 8 7 7 7 7 7 8 8 7 7 7 6 7 6 6 6 6 6 7 9 9 8 7 8 9 10 11 11 11 12 14 14 14 14 15 16 17 18 18 19 20 20 19 19 19 19
23 22 20 19 17 17 17 16 15 14 14 13 13 12 12 11 10 10 10 9 9 9 8 8 8 8 8 9 8 8 7 7 7 7 7 6 6 7 7 7 7 7 7 7 8 8 8 8 8 8 7 7 6 6 6 7 7 8 9 9 9 8 7 8 10 10 11 11 12 13 13 13 14 14 15 16 18 19 20 20 20 19 19 19 18
24 22 21 20 18 18 16 15 15 14 13 12 12 11 11 10 10 10 9 9 9 8 8 8 8 8 8 8 8 7 7 6 6 6 6 6 5 5 6 5 6 6 7 7 7 8 8 8 9 9 8 7 6 6 7 7 8 9 9 9 11 10 8 8 9 10 11 12 13 13 13 13 13 13 15 17 18 19 19 20 20 19 18 18 18
24 22 22 21 19 18 16 16 14 13 12 11 11 10 10 10 10 10 9 9 8 8 8 7 7 7 7 7 7 6 6 6 6 6 6 5 5 5 5 4 5 5 6 6 7 7 7 7 8 9 9 7 6 7 7 8 8 10 11 11 11 11 10 9 10 10 11 13 14 14 13 13 13 13 14 15 17 17 18 19 20 19 18 18 18
24 23 22 21 20 17 16 15 13 13 12 11 11 10 10 10 10 10 9 9 8 8 7 7 7 7 6 6 6 5 5 6 6 6 6 5 5 5 5 4 4 5 5 5 6 6 6 6 7 8 8 6 7 8 8 8 9 10 13 14 13 12 11 10 10 10 12 14 15 16 14 13 12 12 11 10 12 12 12 15 18 19 19 18 18
24 23 22 21 19 17 16 14 13 13 11 11 10 10 10 10 10 9 9 9 9 8 8 7 6 6 6 6 6 5 5 5 5 5 5 4 4 4 4 4 4 4 5 5 5 6 7 7 7 6 6 5 8 10 9 9 10 12 15 16 16 14 13 11 10 10 12 12 14 16 14 13 11 10 10 9 10 10 9 10 13 17 19 18 18
24 22 21 21 18 17 16 15 14 13 11 11 10 10 10 10 10 9 9 9 9 9 8 7 7 6 6 6 5 5 5 5 5 4 4 4 3 3 3 4 4 4 5 5 6 6 7 7 7 6 5 5 6 8 9 11 12 13 16 17 17 15 14 12 10 10 11 11 14 15 13 11 9 11 11 12 12 12 11 10 9 12 17 18 18
24 22 21 20 18 17 15 15 13 13 12 11 11 10 10 9 9 9 8 8 8 8 8 8 7 7 7 6 6 5 5 4 4 4 4 3 3 3 3 4 4 5 5 5 6 6 6 6 7 6 5 4 4 6 9 11 13 14 15 17 16 15 14 12 11 11 10 12 15 14 11 9 9 12 12 13 13 13 14 13 11 9 13 16 17
24 22 21 20 18 16 15 14 13 13 12 11 11 10 10 9 9 9 8 8 8 8 8 8 8 7 7 6 6 6 5 5 4 4 4 3 3 3 3 3 3 4 4 4 5 6 6 6 6 6 5 3 4 6 8 11 13 14 15 15 14 15 14 11 11 11 10 14 16 14 11 9 10 12 12 12 12 14 13 13 14 9 9 14 17
23 23 21 20 18 15 15 14 13 13 12 11 11 10 10 9 9 8 8 8 8 7 7 8 7 7 7 6 6 6 5 5 4 4 4 4 3 3 3 3 3 3 3 4 5 5 6 5 6 7 5 3 4 7 9 12 14 14 15 15 13 15 15 11 10 10 11 16 17 14 12 11 11 11 11 12 12 14 14 13 13 11 8 12 16
23 22 21 20 17 15 15 13 13 13 12 11 10 10 9 9 9 8 8 8 8 8 7 7 7 6 6 5 5 5 5 5 5 5 5 4 4 3 3 3 2 2 3 3 4 4 4 5 6 6 5 3 2 6 9 11 14 15 16 15 14 15 17 14 11 10 13 18 18 14 12 12 12 11 11 11 12 13 15 14 13 12 9 11 15
23 22 21 19 16 14 14 13 13 12 12 11 10 10 9 10 9 9 8 8 8 8 8 7 6 6 5 5 5 4 4 4 4 4 5 5 4 3 3 2 2 2 2 3 4 4 4 4 5 5 5 4 3 4 7 10 12 14 15 15 15 17 18 17 13 12 15 19 18 14 12 13 13 12 11 11 12 12 14 15 13 12 11 11 15
24 22 21 19 16 14 13 14 14 13 12 11 10 9 9 10 9 9 8 8 8 7 7 7 6 6 5 5 4 4 3 3 3 3 3 3 3 3 2 2 2 2 2 2 3 4 5 5 5 5 5 4 3 4 6 9 11 14 16 15 16 18 17 16 15 13 16 19 19 15 13 13 13 12 11 11 11 11 12 15 14 13 12 13 15
24 22 21 18 15 13 12 14 15 13 11 11 11 9 9 9 9 8 7 7 7 6 6 6 6 5 5 5 4 4 3 2 2 2 2 3 3 2 3 2 2 2 3 3 4 4 5 5 5 5 5 4 3 3 4 8 10 13 17 16 16 16 15 16 17 17 16 17 18 16 14 13 13 12 12 12 11 11 11 14 15 12 11 14 14
23 22 20 18 15 12 12 13 15 13 11 11 10 10 10 9 9 8 7 7 6 6 6 6 6 5 5 5 5 4 4 3 3 3 3 3 3 3 2 2 2 2 3 4 5 6 6 6 5 5 5 5 4 3 3 5 7 10 14 16 17 17 17 16 18 18 15 15 16 16 15 14 14 13 12 13 11 12 12 14 15 12 12 14 14
22 21 20 17 15 14 12 12 15 14 12 11 10 10 9 9 9 7 7 6 6 6 5 6 5 6 6 6 6 5 5 4 4 4 4 4 4 4 3 3 3 3 4 5 6 7 7 7 7 6 5 5 4 3 3 3 4 7 10 13 17 18 18 17 17 18 15 14 15 15 16 15 14 13 12 13 13 13 13 13 14 13 15 15 14
21 20 19 17 15 15 13 11 14 15 14 12 11 11 9 9 9 7 7 6 6 6 6 6 6 7 7 6 5 5 4 4 4 4 4 4 4 4 5 4 4 4 4 5 6 7 8 8 7 6 5 5 5 4 3 4 4 4 5 9 13 15 16 16 16 16 15 14 14 14 16 16 15 14 13 13 14 13 12 13 14 15 17 16 14
20 19 18 17 16 15 14 12 12 14 15 14 13 12 9 8 9 9 8 8 7 7 7 7 7 7 6 5 4 4 4 4 4 4 4 4 5 5 6 5 5 5 5 5 5 6 7 7 7 7 5 5 5 5 4 4 5 5 4 4 8 10 13 15 15 15 15 15 14 14 15 16 16 15 13 13 14 14 13 14 16 17 16 14 13
19 19 19 17 16 16 15 14 13 14 16 16 15 14 11 9 10 10 9 9 9 8 8 7 7 6 6 5 4 4 5 4 4 5 5 4 5 5 6 6 5 5 5 5 5 5 6 6 6 6 5 4 5 5 4 4 5 4 3 2 6 10 13 14 15 15 16 16 15 14 14 16 17 16 14 12 13 14 14 15 16 15 14 13 11
19 20 20 18 17 17 17 17 16 14 15 17 17 15 15 12 11 11 10 10 10 10 9 8 8 8 6 5 5 6 6 5 4 5 5 5 5 5 5 6 6 6 5 5 5 5 5 5 5 5 5 4 4 5 4 4 5 4 2 1 7 10 13 14 14 15 16 16 16 16 15 16 18 17 15 12 12 13 14 14 13 13 12 11 11
20 20 21 20 19 19 18 18 18 16 16 17 17 16 16 14 13 14 13 12 12 11 10 10 10 9 9 8 8 8 7 7 6 5 6 6 5 5 5 6 6 7 6 5 5 5 5 5 5 4 4 4 4 4 4 4 6 6 3 2 5 5 9 14 14 14 15 16 16 16 17 16 17 17 16 14 12 12 13 13 13 12 12 11 11
22 22 21 21 20 19 19 20 19 18 17 17 18 18 17 16 16 16 16 15 14 13 13 12 12 11 11 10 10 9 9 8 8 7 8 8 7 7 6 7 7 7 7 6 6 6 6 5 5 5 5 5 5 4 4 4 5 5 5 4 3 1 6 12 13 14 15 16 15 16 18 17 17 17 16 15 12 12 13 13 13 12 12 12 11
22 21 22 22 21 19 19 21 20 19 19 18 18 18 19 18 18 18 18 17 16 15 14 14 13 12 12 11 11 10 10 9 9 9 10 10 11 10 9 9 9 9 8 8 8 8 8 7 6 7 7 7 6 5 5 5 5 5 5 3 3 3 5 8 10 13 14 16 15 15 17 17 17 17 16 16 14 13 14 14 13 13 13 13 12
21 22 23 23 23 21 21 21 21 21 20 20 20 19 20 20 20 19 19 18 17 16 16 15 14 13 12 12 12 11 11 10 10 10 10 11 12 13 12 11 12 12 11 10 10 10 10 8 7 8 8 8 7 6 6 6 6 6 6 5 5 5 6 6 8 11 12 14 15 14 15 15 16 16 16 16 16 15 15 14 14 14 14 14 14
22 24 25 25 24 24 24 22 22 22 21 22 21 20 20 20 20 19 19 19 18 18 17 16 14 13 13 13 13 12 12 11 11 11 11 12 13 14 15 15 15 15 14 13 13 12 12 10 9 9 9 9 8 8 7 7 6 6 6 7 7 7 7 7 8 9 11 12 13 13 14 15 15 16 16 16 17 17 17 16 15 15 15 15 15
22 24 26 27 26 26 26 25 24 23 22 22 23 22 21 20 20 19 19 19 19 19 17 16 15 14 14 14 14 14 13 13 12 12 12 13 14 15 17 18 19 18 17 16 15 14 13 12 11 10 10 10 9 9 8 8 8 8 8 7 8 8 8 8 7 8 10 11 12 13 14 15 15 16 16 17 18 18 18 17 17 16 16 16 16
24 25 27 28 29 28 27 27 27 26 24 24 24 24 23 22 21 20 20 19 19 19 17 17 16 16 16 16 16 15 15 14 14 13 13 14 15 16 18 19 19 19 19 19 17 16 15 14 12 11 10 10 10 9 9 9 9 9 9 9 9 9 8 8 7 8 9 10 11 13 14 14 15 16 17 18 19 20 20 19 18 18 18 17 17
26 26 27 29 29 28 28 29 29 27 26 25 25 25 24 23 22 21 20 19 19 18 18 18 17 17 17 16 17 17 16 16 16 15 14 15 15 16 16 17 19 19 19 19 18 17 16 15 13 12 12 11 10 9 10 10 10 10 10 10 10 9 9 8 8 8 9 9 10 12 14 14 14 16 17 18 19 21 22 21 20 20 19 19 18
25 25 27 28 27 28 29 30 29 28 27 26 25 24 23 23 22 20 20 20 19 18 19 18 18 17 17 16 16 17 17 17 17 16 15 15 15 14 14 15 18 19 17 17 17 17 17 16 15 13 13 12 10 9 10 10 10 10 10 11 10 10 9 9 9 9 9 9 10 11 12 13 14 15 17 19 20 21 21 21 22 22 22 20 20
24 26 27 26 26 27 29 29 29 28 27 26 25 24 23 22 21 20 20 19 19 19 19 18 17 16 15 15 16 16 17 18 18 17 16 14 13 13 13 15 16 18 16 14 14 16 17 17 16 15 14 13 12 11 10 10 11 10 10 11 10 11 10 10 10 9 9 9 10 10 11 11 13 14 16 19 21 21 21 21 23 24 23 22 21
24 28 28 26 26 27 28 28 28 28 28 27 25 23 22 21 20 20 19 18 18 19 18 17 16 14 14 15 16 17 18 19 19 18 17 15 13 12 13 13 14 15 13 11 12 14 16 17 17 16 15 14 13 13 12 12 12 10 10 11 11 11 11 12 11 10 10 9 10 11 10 10 11 13 15 17 21 22 22 22 22 23 23 23 22
24 25 26 26 27 27 27 28 27 28 28 26 25 23 21 20 20 19 18 17 18 18 17 16 15 15 15 16 18 19 19 19 19 18 16 14 12 11 11 12 12 12 11 9 10 12 15 16 15 15 15 15 15 15 14 14 12 11 10 10 12 11 11 13 13 12 12 11 10 11 11 11 11 12 14 15 18 21 23 22 22 22 23 23 23
25 24 25 26 26 26 26 26 26 27 26 26 25 23 22 20 19 18 17 16 17 17 17 16 17 16 16 18 20 20 19 19 19 17 13 11 11 12 12 11 11 11 10 10 11 12 15 15 14 14 14 15 15 16 15 15 13 12 11 11 12 12 12 13 14 14 14 13 12 12 12 12 12 12 14 15 16 19 21 23 23 22 23 24 24
27 24 24 24 25 24 24 25 25 26 25 25 25 24 22 21 20 18 17 16 17 17 18 19 18 16 17 18 19 19 18 16 15 11 10 11 11 12 12 10 10 10 10 10 11 12 13 13 13 13 15 16 15 15 16 16 15 13 12 11 11 12 13 14 14 15 15 14 14 13 13 13 13 13 14 15 16 17 20 23 24 24 24 24 24
25 24 24 24 23 22 22 22 24 25 25 25 25 24 23 22 21 19 18 18 18 19 19 19 17 14 14 15 15 14 12 9 8 8 11 13 13 12 11 9 10 10 10 11 12 13 12 11 13 14 15 16 15 15 15 14 14 13 12 12 11 12 13 13 13 14 14 15 16 15 15 13 13 13 15 16 16 16 18 22 24 24 25 24 24
23 25 26 23 20 18 18 20 23 24 25 26 25 25 24 23 23 21 21 21 20 20 18 14 12 11 12 12 11 11 9 8 9 9 13 14 12 12 10 8 9 9 11 12 13 14 12 12 15 14 14 15 15 15 14 13 12 13 12 11 11 11 12 12 12 13 15 16 16 16 16 15 14 14 15 16 16 15 16 19 21 22 24 24 25
21 23 25 21 17 17 19 22 24 23 24 25 26 26 25 23 23 22 22 21 19 18 14 11 11 11 11 10 11 12 10 10 10 10 15 16 12 11 11 9 8 9 11 12 14 15 12 12 14 15 14 13 12 12 12 12 11 12 11 10 10 10 11 11 12 13 15 16 16 16 16 17 16 15 15 16 16 15 15 17 19 21 22 23 24
19 20 23 21 17 19 25 29 29 26 24 24 24 24 23 22 21 21 20 19 18 17 13 10 10 12 11 9 12 13 11 9 8 10 14 15 11 10 11 10 8 9 11 12 14 15 14 12 12 13 13 11 10 10 10 9 9 9 10 11 12 12 11 10 11 13 15 16 17 18 17 18 18 18 17 17 17 17 16 16 18 20 21 22 23
19 18 20 22 20 21 25 32 32 29 26 25 23 21 21 20 20 21 21 20 18 16 12 9 9 11 10 9 10 10 8 9 8 8 10 10 9 9 9 8 8 9 9 10 12 13 13 11 8 10 11 9 8 7 5 4 5 5 6 8 11 12 10 10 11 13 15 17 18 19 19 19 19 19 19 19 18 18 18 18 18 19 21 22 23
22 18 15 18 21 23 23 27 29 28 26 26 26 23 19 16 18 21 20 20 18 15 12 9 9 9 9 8 7 6 6 7 6 7 7 7 8 8 8 8 7 7 7 6 8 9 9 7 6 9 8 6 6 5 2 1 3 3 2 3 6 7 7 9 11 13 15 17 18 19 20 20 20 19 19 19 20 20 19 19 19 20 21 22 22
25 16 14 16 18 23 25 25 26 28 29 30 31 26 19 16 19 18 15 14 14 14 13 7 6 7 8 7 6 5 5 5 5 7 6 7 7 7 8 8 5 4 5 5 6 7 7 6 5 7 5 4 4 3 1 2 2 2 1 1 2 2 3 4 8 11 14 17 18 19 20 21 21 19 19 19 20 21 20 20 21 21 21 22 22
23 16 17 17 15 19 21 24 25 27 30 31 29 26 20 19 22 18 12 9 10 11 10 7 7 8 7 6 5 6 5 6 7 7 6 6 6 6 6 4 3 4 5 6 6 6 6 5 4 4 4 5 4 3 2 2 3 3 2 1 1 1 1 1 5 7 8 11 15 18 20 21 21 20 20 21 21 21 20 21 21 22 22 23 23
20 21 23 17 12 15 16 18 21 23 26 25 24 22 18 17 19 17 13 10 10 10 7 7 8 7 7 5 4 5 6 7 8 8 6 5 4 5 5 1 2 4 5 6 7 6 6 5 6 5 4 5 5 3 3 4 3 5 4 2 2 1 1 1 4 3 3 5 9 13 17 20 22 22 22 22 22 21 21 21 22 22 23 23 24
19 22 25 18 13 15 18 20 20 19 20 20 20 18 15 16 18 16 14 13 10 8 6 6 6 5 5 4 3 4 5 6 6 5 4 2 2 3 3 1 3 4 5 6 6 6 6 6 6 6 6 5 5 4 5 6 5 5 7 7 4 2 2 2 2 1 4 5 5 5 8 12 16 19 22 23 23 23 23 23 23 23 23 24 24
18 17 19 19 15 15 18 19 20 18 17 17 18 16 14 16 16 14 12 9 6 5 4 4 4 4 3 3 3 3 2 2 1 1 2 1 0 1 2 3 5 6 6 6 7 7 7 7 6 7 7 6 5 4 6 7 6 5 5 8 8 7 8 6 3 2 4 3 3 5 7 8 9 13 17 20 22 23 24 24 25 25 25 25 25
18 15 16 19 17 15 16 17 17 17 17 16 17 16 14 16 16 11 7 5 5 3 2 2 3 3 2 2 2 1 4 5 2 1 2 1 1 1 2 4 5 5 5 6 7 7 7 6 7 7 6 7 7 6 6 6 5 5 5 6 6 7 10 10 7 6 4 2 4 6 7 8 8 10 12 14 17 19 22 23 25 26 26 27 27
17 17 16 18 18 17 17 18 17 16 17 16 15 15 15 16 14 9 6 6 5 3 2 2 1 2 1 2 2 4 6 4 1 1 1 2 3 4 4 4 4 5 5 5 5 5 5 5 5 5 5 6 7 7 7 7 6 5 6 6 6 6 7 7 7 6 4 3 4 3 4 6 8 10 11 12 13 14 17 19 21 24 26 27 28
17 18 17 16 17 17 17 17 16 14 15 15 15 15 15 14 12 8 7 6 5 4 3 1 1 1 2 4 4 4 3 1 1 1 1 2 4 4 4 4 3 3 4 3 3 3 3 3 4 4 4 5 6 6 7 7 7 6 6 7 8 7 5 3 3 4 4 3 4 5 6 6 7 10 12 11 12 12 13 15 17 20 22 24 25
16 18 18 17 17 17 15 15 15 13 13 15 16 16 14 12 10 7 6 5 5 4 3 2 1 2 4 3 2 2 2 1 1 0 3 5 6 5 4 3 2 1 1 0 1 2 2 3 3 3 3 4 5 6 7 7 6 6 6 8 9 8 6 5 5 5 3 3 4 4 7 7 7 10 12 12 12 13 13 14 15 17 19 20 21
Wind_Direction
166 166 159 150 151 148 142 144 144 142 140 136 133 133 133 133 135 135 134 130 129 129 130 130 133 133 134 140 145 152 160 165 166 167 163 163 169 174 176 177 179 177 178 185 187 188 191 192 187 182 182 176 170 175 166 148 140 123 109 114 130 128 129 127 126 127 127 128 130 133 134 133 132 132 132 130 129 128 126 124 123 120 119 119 118
162 165 159 151 155 150 143 145 148 147 142 138 135 136 137 138 139 139 138 135 135 133 133 135 138 139 137 136 140 145 152 160 162 166 165 164 169 177 182 182 184 185 186 192 199 201 199 197 196 191 197 189 174 168 166 168 160 141 126 126 132 131 134 134 132 130 129 131 134 138 139 136 135 135 133 132 132 131 130 128 124 123 122 121 118
159 163 159 153 154 148 145 146 150 149 142 139 136 137 139 140 142 142 142 140 140 137 135 136 139 141 139 137 137 141 147 156 161 166 166 168 172 180 184 185 189 193 199 201 204 209 206 203 206 203 205 200 180 165 176 185 173 155 137 129 132 137 143 138 135 134 133 134 136 141 141 136 137 137 136 137 136 136 134 130 127 126 125 121 119
160 162 159 154 152 149 147 149 152 148 142 139 137 139 139 142 144 143 143 142 140 136 137 135 134 135 136 136 137 138 143 150 158 164 168 175 177 182 182 185 193 197 204 207 207 211 214 212 213 212 210 206 180 169 186 188 178 160 137 132 143 147 151 145 139 138 138 138 139 146 146 139 141 141 142 142 141 140 137 132 129 126 123 121 120
159 159 157 153 151 150 149 152 151 145 142 140 141 143 144 147 146 145 143 141 139 137 138 135 134 134 134 133 136 139 142 149 157 165 170 176 175 178 181 188 198 204 210 213 217 220 223 222 220 218 215 208 176 172 190 186 180 157 134 145 156 151 158 160 149 145 147 146 147 154 151 144 144 147 148 147 145 143 138 133 129 125 124 122 121
157 157 155 151 150 150 152 152 147 146 145 144 146 148 149 150 149 147 144 142 141 141 141 141 140 139 137 135 139 143 149 155 161 169 173 176 176 178 183 192 203 213 219 221 226 229 230 229 229 227 223 213 179 188 196 186 184 161 147 161 164 156 163 168 157 156 158 153 155 159 154 148 150 153 153 148 144 140 137 133 129 127 125 124 123
156 155 153 151 150 151 154 150 147 149 149 150 150 150 152 150 150 148 146 147 145 146 144 143 142 138 138 139 142 149 159 163 167 174 176 181 184 188 193 202 213 221 229 235 236 237 240 239 238 236 232 214 186 204 206 189 184 171 166 169 170 166 164 167 164 164 163 159 160 164 158 152 154 152 143 134 129 125 128 130 129 127 125 124 124
155 155 154 152 150 152 153 151 151 152 153 154 153 153 153 150 148 146 148 149 149 148 145 141 140 139 139 143 147 155 165 164 168 174 176 184 189 196 206 212 225 231 240 250 251 251 252 252 249 244 235 213 196 206 204 188 181 180 178 175 174 170 165 167 172 168 165 166 167 168 161 155 153 138 123 117 115 115 116 117 121 125 124 124 124
156 157 155 153 152 153 153 154 154 155 156 154 154 153 148 147 145 145 148 148 150 149 146 143 142 143 143 147 152 159 165 163 166 171 175 187 195 210 220 224 236 241 249 256 259 259 257 261 261 256 246 231 209 207 204 189 184 186 183 181 177 171 169 168 177 177 173 177 173 170 163 157 145 127 130 134 130 131 127 115 112 121 124 126 125
159 160 157 155 154 155 155 157 157 157 156 154 155 151 145 147 146 148 149 150 152 151 149 149 149 150 149 152 155 158 161 163 166 170 177 188 199 215 225 230 238 243 251 256 264 269 271 275 274 269 258 244 210 204 211 198 190 190 184 184 180 172 174 173 182 185 183 182 174 170 161 154 143 138 145 147 142 140 135 127 121 120 125 126 126
162 162 160 158 156 157 159 158 159 158 156 156 155 151 150 150 151 153 154 155 155 154 155 156 158 157 156 158 159 160 161 165 168 172 181 188 197 209 221 233 243 250 257 266 276 281 285 289 287 284 272 253 214 206 215 209 199 193 187 185 181 177 180 184 188 185 185 181 172 167 157 147 147 147 149 151 147 141 138 133 126 122 129 129 127
164 163 162 160 157 161 162 159 160 160 159 158 156 153 154 154 155 157 159 160 159 160 163 166 168 164 162 160 160 161 162 167 171 180 188 194 203 214 224 240 252 268 277 281 283 284 287 290 295 293 285 266 212 199 208 211 205 198 192 186 182 183 184 190 194 186 181 177 172 166 157 148 145 145 148 154 152 146 141 134 127 125 140 138 131
164 165 164 159 157 165 163 160 162 161 160 158 158 156 156 159 159 162 163 165 164 164 167 172 173 170 166 162 162 163 166 174 183 192 197 201 205 213 221 234 251 277 293 301 298 295 295 299 305 304 298 286 219 198 207 212 207 201 195 187 185 187 186 192 197 187 178 175 174 171 163 152 147 148 150 154 154 153 144 137 134 132 150 149 135
164 166 164 160 159 169 167 165 166 161 161 159 160 161 164 167 166 167 168 170 170 167 168 172 175 173 171 171 173 173 180 189 199 207 205 203 198 201 211 222 240 264 291 315 317 312 308 306 306 302 299 286 254 213 215 214 204 200 197 190 188 188 187 193 195 186 179 177 177 177 172 159 155 154 151 154 154 155 146 140 140 139 156 159 142
165 166 165 161 160 172 173 172 171 162 162 162 163 168 172 173 172 172 171 175 174 170 170 172 176 178 181 181 185 187 194 201 209 220 221 217 208 211 222 225 233 246 276 300 312 312 309 308 305 301 300 284 257 230 225 212 198 198 200 197 194 191 188 194 194 188 183 180 181 183 181 169 161 156 153 155 152 156 151 145 145 144 159 164 149
166 166 165 163 164 172 175 175 171 163 164 166 168 174 178 176 174 173 173 175 174 174 174 178 181 182 189 189 192 192 194 203 205 220 236 251 250 247 247 247 252 262 284 302 308 306 309 310 309 307 304 295 270 246 227 205 194 197 201 200 199 194 189 198 196 190 186 180 182 187 184 176 165 157 156 156 151 155 154 152 149 144 163 168 154
168 168 167 165 168 172 178 178 167 164 170 170 175 181 181 177 175 176 176 177 176 177 182 187 187 189 196 197 200 199 198 201 208 220 230 249 260 267 259 263 279 291 302 311 313 310 314 314 314 314 308 303 290 267 238 214 198 195 197 199 200 194 191 201 198 190 191 182 181 187 186 181 169 161 161 158 154 154 155 161 153 148 173 174 159
170 172 171 169 173 175 182 182 168 167 174 174 179 185 186 181 179 180 177 179 180 180 190 194 195 200 206 205 207 211 211 213 219 224 225 237 254 267 266 270 285 298 303 307 310 309 314 316 320 322 315 312 306 291 274 269 240 208 201 198 199 197 193 200 201 192 193 189 182 187 190 186 174 169 169 165 163 159 161 166 155 156 178 176 166
173 176 176 175 178 178 184 184 176 174 175 178 179 185 196 186 179 184 180 182 186 187 199 203 201 204 211 212 219 225 223 228 236 239 240 242 252 263 269 270 279 287 285 290 297 300 307 312 318 321 319 322 321 314 300 301 297 260 225 204 201 199 191 195 203 195 195 195 189 189 191 189 181 176 175 172 172 168 167 170 165 169 177 173 170
177 180 180 181 182 182 186 186 186 186 180 180 180 186 196 190 185 189 188 188 192 200 207 205 199 201 207 212 226 238 235 230 229 242 249 253 261 267 273 272 269 274 273 274 280 286 294 302 309 315 321 326 325 324 314 314 319 307 281 237 216 208 198 199 206 202 202 201 196 194 191 190 189 184 179 179 181 176 173 175 177 179 175 169 167
182 184 185 187 189 188 190 191 193 197 191 184 184 186 185 191 196 196 196 197 199 207 210 202 200 208 209 215 231 245 250 238 227 232 234 241 255 267 276 281 278 274 273 271 273 276 282 290 298 307 314 318 319 318 317 315 310 305 312 275 227 221 213 210 211 210 209 208 202 199 195 192 194 192 187 187 188 182 180 180 180 179 174 169 167
186 189 190 191 195 195 196 197 194 200 201 190 188 188 183 192 204 206 205 204 206 210 212 205 209 214 211 222 238 246 254 253 250 243 240 241 245 260 272 282 286 280 280 276 277 277 278 281 285 295 302 306 305 307 314 304 293 300 340 225 227 227 218 213 213 212 209 209 208 205 201 196 195 197 197 197 194 188 187 186 181 179 177 174 173
189 192 194 195 199 202 202 202 198 199 206 197 193 192 190 194 206 213 211 207 211 214 214 213 216 219 215 222 234 244 251 256 260 261 262 259 252 260 271 279 282 280 280 275 276 278 279 279 279 287 290 291 289 296 308 298 294 307 325 274 251 235 213 211 210 210 207 208 211 207 204 200 197 198 201 202 199 194 194 192 188 183 183 182 183
192 193 196 198 201 205 205 207 204 201 207 204 199 199 198 200 207 215 216 211 213 215 217 216 217 221 223 224 232 241 249 254 258 261 264 264 261 257 259 267 271 275 278 275 274 274 276 271 270 272 269 273 274 281 290 285 288 294 303 302 300 301 208 210 210 212 211 210 214 209 203 202 200 198 199 203 203 201 199 198 194 190 188 191 193
194 194 199 201 203 205 207 210 209 206 208 207 205 205 204 207 211 214 217 217 215 216 217 217 216 221 226 229 234 240 247 253 257 261 264 268 271 268 263 260 262 268 270 271 271 274 276 267 260 259 260 268 270 269 272 272 273 270 274 275 270 256 221 214 214 218 216 213 216 215 207 204 204 201 200 203 205 205 204 201 198 196 196 198 202
195 197 201 204 206 207 208 210 212 211 211 210 210 210 210 214 216 215 219 221 219 219 219 217 218 221 228 233 237 242 247 252 257 262 266 271 276 277 276 271 267 267 266 268 269 273 277 273 265 261 263 268 269 266 261 261 261 260 256 246 239 232 222 217 216 221 220 216 219 221 216 212 209 205 203 203 205 207 207 206 202 202 203 204 208
197 200 203 206 209 210 211 212 213 213 213 213 214 214 214 218 219 218 221 224 224 224 222 220 222 225 229 235 239 244 247 251 257 262 267 273 278 282 284 283 278 274 272 270 270 273 276 275 269 262 262 262 265 264 261 261 258 256 253 249 243 232 224 219 216 219 221 221 223 225 225 223 219 213 208 205 206 207 208 210 209 207 208 210 211
200 203 204 206 210 212 213 213 214 214 214 214 215 217 217 220 222 221 223 225 228 229 227 227 229 230 233 237 241 244 246 251 255 260 269 276 284 290 291 289 286 281 276 272 271 273 275 276 270 262 262 261 261 260 259 264 265 262 255 252 248 242 233 226 220 217 218 222 225 227 229 230 228 223 215 212 212 210 210 213 214 213 211 213 215
202 205 205 207 210 213 213 214 216 216 217 216 217 219 220 222 224 225 225 226 229 230 232 234 235 236 238 240 244 247 250 254 258 264 273 281 291 297 297 296 293 287 279 273 271 273 275 276 272 263 261 262 261 258 259 264 270 270 263 256 252 251 247 235 227 223 223 225 227 227 230 232 231 229 222 219 219 215 213 215 217 219 217 216 218
203 205 206 209 211 213 214 215 217 218 219 219 219 220 221 224 226 227 228 229 230 232 236 238 239 240 241 243 247 250 256 261 267 272 277 285 294 297 299 301 300 294 282 273 270 271 274 275 272 266 263 265 265 258 258 264 272 274 268 260 254 255 255 248 240 237 236 235 232 226 225 229 231 231 226 222 223 220 217 216 218 222 222 220 220
204 205 208 211 211 213 215 216 217 218 220 221 221 222 223 225 226 229 231 232 233 236 239 240 241 244 245 247 250 254 259 265 270 275 279 286 290 291 296 299 300 297 288 275 269 268 272 275 273 271 268 270 272 265 261 266 272 274 270 264 258 256 254 253 249 246 247 246 238 223 217 224 229 231 229 225 225 225 222 220 220 222 223 223 223
204 207 211 211 211 214 217 218 218 218 221 223 223 224 225 226 227 230 232 233 236 240 242 243 244 244 247 252 256 260 264 269 273 276 279 283 285 288 293 294 295 294 289 276 268 267 270 274 273 271 271 271 272 270 268 268 270 270 267 265 261 257 257 257 253 248 246 249 242 224 217 222 228 231 230 226 224 225 227 224 223 224 223 223 224
207 211 211 210 212 215 218 220 220 220 222 224 225 227 228 228 228 230 232 235 237 240 243 244 245 247 255 261 266 270 273 275 275 275 276 277 280 285 290 293 294 294 290 278 270 269 269 271 270 269 270 271 271 269 267 266 268 268 265 266 264 260 261 261 260 254 246 244 242 232 226 224 227 232 232 228 224 223 226 227 225 226 225 223 224
211 213 211 210 212 215 217 220 221 222 223 226 227 229 229 228 229 231 234 236 237 241 244 248 253 257 264 271 276 278 277 275 273 273 274 271 272 282 293 297 295 294 293 282 272 270 271 272 270 270 272 274 273 270 267 265 267 267 265 268 266 262 261 261 263 261 253 245 240 237 236 233 232 234 233 230 226 222 224 228 229 228 228 226 225
211 213 213 212 212 213 215 218 220 222 225 227 228 229 230 228 229 230 232 236 239 243 248 255 261 266 274 280 280 278 275 273 273 272 263 252 264 286 298 299 292 291 293 287 280 277 276 274 272 274 274 272 271 269 267 266 267 266 265 268 267 263 260 260 262 261 257 252 244 239 239 239 236 234 232 229 227 226 224 226 230 231 232 230 227
213 213 215 215 212 211 213 216 219 222 225 228 229 230 231 229 231 234 236 241 247 251 256 262 266 273 279 274 269 271 275 274 272 264 239 235 260 286 295 293 285 284 289 289 282 277 275 273 274 277 275 271 267 264 266 267 267 267 266 265 264 263 262 260 257 253 253 254 250 244 241 240 237 233 232 231 231 232 230 229 229 231 233 232 231
217 217 220 219 214 211 212 216 219 222 224 226 228 231 232 232 234 239 243 248 253 255 259 262 261 261 261 259 255 257 262 256 241 231 236 249 266 279 285 282 276 279 284 283 277 274 271 268 271 273 274 273 268 263 265 267 268 271 270 266 265 265 265 263 256 249 248 251 251 247 243 242 239 234 233 234 237 238 236 232 230 231 232 233 234
221 222 226 225 218 214 212 217 222 223 225 226 227 230 232 234 238 243 248 252 253 252 253 252 243 237 241 245 239 232 230 227 219 225 248 263 266 269 272 265 267 273 275 277 276 277 276 270 271 270 266 270 272 267 264 264 269 276 275 272 270 268 268 266 259 252 247 247 247 245 243 243 242 239 236 236 239 241 238 232 231 233 233 232 234
225 224 227 227 215 211 217 224 228 227 226 228 227 227 231 234 239 242 244 246 243 240 237 223 219 235 244 234 226 233 241 239 239 246 255 261 265 270 268 258 258 263 265 270 272 276 279 272 276 281 274 271 273 266 261 265 269 272 274 276 274 271 271 266 258 253 249 248 246 244 241 241 242 242 240 238 238 240 239 235 232 235 236 234 234
226 223 226 227 207 201 217 225 228 227 226 226 224 223 225 229 232 230 227 227 226 226 222 208 222 249 253 243 239 242 248 255 260 254 250 257 269 271 265 261 265 267 267 270 273 279 284 282 285 287 280 275 273 264 263 266 262 265 270 272 275 273 270 264 256 252 250 249 247 246 243 240 240 240 240 239 239 240 240 238 235 236 238 238 238
220 218 222 225 207 192 209 220 223 225 226 226 224 220 216 214 216 214 210 212 218 227 226 203 215 248 258 255 247 237 254 287 280 251 246 260 275 275 277 280 281 280 279 277 279 285 292 300 300 277 268 273 279 279 274 254 243 255 263 270 276 273 266 260 257 254 252 250 247 247 246 243 241 240 240 240 241 242 242 242 239 238 238 239 241
217 216 220 225 208 190 201 217 220 222 224 223 222 217 207 202 208 209 207 213 224 238 240 208 197 237 258 254 249 242 272 291 271 253 257 270 284 298 305 298 290 288 292 289 284 291 299 306 290 265 267 280 286 300 310 192 203 223 230 284 291 282 270 260 255 255 253 251 247 244 244 244 243 243 244 243 242 243 245 246 245 244 242 241 242
221 222 225 229 213 193 194 204 209 213 214 215 216 212 204 212 222 219 214 220 238 252 257 247 217 231 236 236 255 266 272 274 262 266 273 283 302 322 316 303 307 309 311 309 296 298 292 281 273 270 284 305 302 321 319 195 194 191 184 273 303 333 303 269 264 264 257 252 247 243 242 242 243 244 246 247 245 244 245 248 249 249 249 246 246
221 229 230 228 216 196 187 191 196 202 206 209 214 212 209 223 234 239 235 224 232 242 245 248 241 238 236 250 277 277 271 268 262 264 272 287 301 315 310 308 341 336 334 339 331 321 296 285 304 297 297 309 312 343 338 264 219 194 169 182 133 58 304 320 305 292 272 256 250 248 245 244 245 245 246 247 247 247 247 249 251 253 253 252 251
209 222 224 217 202 194 190 195 200 202 205 209 214 212 206 214 225 234 235 223 220 223 229 247 260 268 273 279 284 277 272 269 269 270 270 282 301 305 301 305 11 349 348 356 357 348 330 331 335 325 324 308 298 319 329 320 264 224 215 194 116 110 229 349 329 316 323 286 267 259 254 250 249 247 247 249 249 250 250 250 251 253 253 254 254
198 213 214 204 188 190 199 208 212 211 212 212 213 211 201 201 205 205 207 211 218 229 251 272 279 280 279 281 282 278 273 266 273 279 273 286 326 308 307 10 35 26 12 7 12 6 356 359 350 342 344 319 303 314 312 321 316 267 235 233 238 233 251 323 334 305 330 314 288 280 276 267 259 253 250 251 251 251 251 252 253 254 254 255 256
198 207 203 199 193 189 195 205 212 214 213 210 208 206 204 214 218 212 209 216 229 247 269 285 280 272 280 291 293 289 265 214 215 315 328 350 14 312 6 44 45 40 32 28 33 32 26 22 13 6 360 349 344 329 311 320 326 312 278 259 257 258 268 285 285 278 306 299 284 304 306 300 283 266 258 256 254 253 253 253 254 256 256 257 258
200 205 197 197 200 192 188 192 198 202 200 200 205 205 210 226 232 228 223 236 247 248 258 276 275 282 312 328 326 124 145 149 138 54 29 57 104 116 78 67 61 52 51 52 47 39 36 31 26 23 11 2 359 346 333 333 326 317 321 302 276 266 272 278 276 278 287 281 289 298 299 300 293 279 271 267 263 260 259 258 257 257 258 258 259
200 205 198 197 201 198 194 191 189 192 195 201 211 214 217 224 227 226 225 230 231 220 224 243 273 307 18 59 82 127 141 142 92 35 60 79 101 123 110 85 80 84 82 69 50 33 23 18 18 19 12 4 358 351 344 338 330 315 312 313 303 296 294 289 272 259 259 279 293 296 303 306 297 289 284 278 274 270 266 265 263 261 261 260 259
202 203 198 198 200 202 206 203 199 202 206 209 213 215 216 220 224 228 226 217 205 201 205 215 278 267 133 117 117 134 142 126 344 318 175 136 130 140 127 106 105 100 89 63 45 36 21 7 1 2 9 14 7 1 356 346 336 318 305 302 301 306 312 298 254 237 246 271 281 285 291 291 289 295 298 289 283 282 276 272 269 266 264 263 261
198 198 197 195 194 199 206 206 207 210 212 213 214 214 217 225 231 229 217 196 183 186 185 169 161 158 153 140 126 146 163 198 266 183 162 166 166 170 161 146 159 164 148 6 359 14 4 346 344 349 353 2 5 1 359 358 350 336 320 306 299 299 291 278 284 279 257 246 269 285 286 285 280 286 300 303 296 292 287 281 276 273 270 267 265